Change the Weather History Date:

Saturday, May 4, 2013

  Actual Average Record
Temperature  
Mean Temperature 49 °F 62 °F  
Max Temperature 52 °F 74 °F 91 °F (1959)
Min Temperature 46 °F 51 °F 32 °F (1976)
Degree Days  
Heating Degree Days 16 4  
Month to date heating degree days 16 19  
Since 1 July heating degree days 4464 4474  
Cooling Degree Days 0 2  
Month to date cooling degree days 7 5  
Year to date cooling degree days 41 32  
Moisture  
Dew Point 45 °F    
Average Humidity 90    
Maximum Humidity 93    
Minimum Humidity 86    
Precipitation  
Precipitation 1.09 in 0.17 in 1.12 in (1990)
Month to date precipitation 1.11 0.68  
Year to date precipitation 18.58 15.56  
Snow  
Snow 0.00 in 0.00 in T in (1951)
Month to date snowfall 0.0 0.0  
Since 1 July snowfall 12.3 11.8  
Snow Depth 0.00 in    
Sea Level Pressure  
Sea Level Pressure 29.95 in    
Wind  
Wind Speed 4 mph (SW)    
Max Wind Speed 14 mph    
Max Gust Speed 18 mph    
Visibility 6 miles    
Events Rain    
T = Trace of Precipitation, MM = Missing Value Source: NWS Daily Summary

Daily Weather History Graph

Daily Weather History Graph

Search for Another Location

Airport or City:

Trip Planner

Search our weather history database for the weather conditions in past years. The results will help you decide how hot, cold, wet, or windy it might be!

Date:

Astronomy

May. 04, 2013 Rise Set
Actual Time 5:50 AM CDT 7:44 PM CDT
Civil Twilight 5:21 AM CDT 8:12 PM CDT
Nautical Twilight 4:46 AM CDT 8:47 PM CDT
Astronomical Twilight 4:09 AM CDT 9:25 PM CDT
Moon 2:43 AM CDT (5/4) 2:46 PM CDT (5/4)
Length of Visible Light 14h 51m
Length of Day
13h 53m
Waning Crescent, 27% of the Moon is Illuminated
May 4
Waning Crescent
May 9
New
May 17
First Quarter
May 24
Full
May 31
Last Quarter

Hourly Weather History & Observations

Time (CDT) Temp. Windchill Dew Point Humidity Pressure Visibility Wind Dir Wind Speed Gust Speed Precip Events Conditions
12:47 AM 53.6 °F - 51.8 °F 94% 29.91 in 10.0 mi SSW 8.1 mph - 0.00 in Rain Light Rain
12:54 AM 53.1 °F - 50.0 °F 89% 29.91 in 6.0 mi SSW 11.5 mph - 0.01 in Rain Rain
1:54 AM 50.0 °F - 46.9 °F 89% 29.88 in 10.0 mi SSW 6.9 mph - 0.10 in Rain Light Rain
2:26 AM 50.0 °F - 46.4 °F 87% 29.89 in 7.0 mi SSW 3.5 mph - 0.04 in Rain Light Rain
2:46 AM 48.2 °F - 46.4 °F 93% 29.89 in 10.0 mi SW 11.5 mph - 0.04 in Rain Light Rain
2:54 AM 48.9 °F - 46.0 °F 90% 29.89 in 9.0 mi SW 6.9 mph - 0.04 in Rain Rain
3:54 AM 48.0 °F - 45.0 °F 89% 29.88 in 10.0 mi SW 6.9 mph - 0.04 in Rain Light Rain
4:54 AM 46.9 °F - 45.0 °F 93% 29.89 in 4.0 mi SSE 3.5 mph - 0.11 in Rain Rain
5:54 AM 46.9 °F - 45.0 °F 93% 29.89 in 5.0 mi Calm Calm - 0.15 in Rain Rain
6:36 AM 46.4 °F 42.9 °F 44.6 °F 93% 29.92 in 3.0 mi SSW 6.9 mph - 0.10 in Rain Rain
6:51 AM 46.4 °F 45.2 °F 44.6 °F 93% 29.92 in 2.5 mi SSW 3.5 mph - 0.15 in Rain Heavy Rain
6:54 AM 46.9 °F - 44.1 °F 90% 29.92 in 2.5 mi SSW 4.6 mph - 0.16 in Rain Heavy Rain
6:59 AM 46.4 °F 44.3 °F 44.6 °F 93% 29.92 in 3.0 mi SSW 4.6 mph - 0.01 in Rain Heavy Rain
7:18 AM 46.4 °F 44.3 °F 44.6 °F 93% 29.92 in 3.0 mi SW 4.6 mph - 0.07 in Rain Rain
7:38 AM 46.4 °F - 44.6 °F 93% 29.92 in 3.0 mi Calm Calm - 0.12 in Rain Rain
7:54 AM 46.9 °F - 44.1 °F 90% 29.91 in 7.0 mi NW 5.8 mph - 0.15 in Rain Light Rain
8:10 AM 46.4 °F - 44.6 °F 93% 29.91 in 8.0 mi Calm Calm - 0.01 in Rain Light Rain
8:22 AM 46.4 °F 44.3 °F 44.6 °F 93% 29.92 in 5.0 mi West 4.6 mph - 0.02 in Rain Rain
8:54 AM 46.9 °F - 44.1 °F 90% 29.93 in 5.0 mi WSW 6.9 mph - 0.06 in Rain Rain
9:08 AM 46.4 °F 42.9 °F 42.8 °F 87% 29.94 in 8.0 mi WSW 6.9 mph - 0.02 in Rain Light Rain
9:29 AM 46.4 °F 43.5 °F 42.8 °F 87% 29.93 in 5.0 mi WSW 5.8 mph - 0.03 in Rain Light Rain
9:54 AM 46.9 °F - 44.1 °F 90% 29.94 in 9.0 mi Calm Calm - 0.06 in Rain Light Rain
10:04 AM 46.4 °F 42.9 °F 44.6 °F 93% 29.94 in 10.0 mi SW 6.9 mph - 0.01 in Rain Light Rain
10:10 AM 46.4 °F 42.9 °F 44.6 °F 93% 29.94 in 2.0 mi SW 6.9 mph - 0.01 in Rain Light Rain
10:54 AM 46.9 °F - 44.1 °F 90% 29.95 in 2.0 mi SW 5.8 mph - 0.03 in Rain Light Rain
11:01 AM 46.4 °F 43.5 °F 44.6 °F 93% 29.95 in 3.0 mi SW 5.8 mph - 0.01 in Rain Light Rain
11:15 AM 46.4 °F 44.3 °F 44.6 °F 93% 29.96 in 2.0 mi SSW 4.6 mph - 0.02 in Rain Light Rain
11:39 AM 46.4 °F 43.5 °F 44.6 °F 93% 29.97 in 3.0 mi SW 5.8 mph - 0.05 in Rain Rain
11:54 AM 46.9 °F - 44.1 °F 90% 29.97 in 4.0 mi SSW 3.5 mph - 0.07 in Rain Rain
12:54 PM 48.0 °F - 44.1 °F 86% 29.97 in 7.0 mi SSW 5.8 mph - 0.06 in Rain Light Rain
1:22 PM 48.2 °F - 44.6 °F 87% 29.97 in 10.0 mi Calm Calm - 0.00 in Rain Light Rain
1:54 PM 48.0 °F - 44.1 °F 86% 29.99 in 10.0 mi South 4.6 mph - 0.00 in   Overcast
2:05 PM 48.2 °F - 44.6 °F 87% 29.97 in 10.0 mi Calm Calm - N/A   Overcast
2:54 PM 48.9 °F - 45.0 °F 86% 29.98 in 10.0 mi South 3.5 mph - N/A   Overcast
3:41 PM 48.2 °F - 44.6 °F 87% 29.97 in 8.0 mi Calm Calm - 0.00 in   Overcast
3:54 PM 48.9 °F - 45.0 °F 86% 29.97 in 10.0 mi Calm Calm - 0.00 in Rain Light Rain
4:04 PM 48.2 °F - 44.6 °F 87% 29.97 in 10.0 mi ESE 3.5 mph - 0.00 in   Overcast
4:54 PM 50.0 °F - 46.0 °F 86% 29.98 in 10.0 mi Calm Calm - 0.00 in   Overcast
5:54 PM 50.0 °F - 46.0 °F 86% 29.99 in 10.0 mi SSW 5.8 mph - 0.00 in Rain Light Rain
6:05 PM 48.2 °F - 44.6 °F 87% 29.99 in 7.0 mi SW 4.6 mph - 0.01 in Rain Light Rain
6:31 PM 48.2 °F - 46.4 °F 93% 29.99 in 5.0 mi SSW 4.6 mph - 0.01 in Rain Light Rain
6:52 PM 48.2 °F - 46.4 °F 93% 29.98 in 5.0 mi West 4.6 mph - 0.01 in Rain Light Rain
6:54 PM 48.9 °F - 46.0 °F 90% 29.99 in 5.0 mi West 4.6 mph - 0.01 in Rain Light Rain
7:31 PM 48.2 °F - 46.4 °F 93% 29.98 in 4.0 mi West 5.8 mph - 0.00 in   Overcast
7:54 PM 48.9 °F - 46.0 °F 90% 29.99 in 7.0 mi West 5.8 mph - 0.00 in   Overcast
8:16 PM 48.2 °F - 44.6 °F 87% 30.00 in 7.0 mi West 4.6 mph - N/A   Overcast
8:34 PM 48.2 °F - 44.6 °F 87% 30.00 in 4.0 mi West 5.8 mph - 0.00 in Rain Light Rain
8:54 PM 48.0 °F - 45.0 °F 89% 30.01 in 6.0 mi West 5.8 mph - 0.02 in Rain Light Rain
9:13 PM 48.2 °F - 44.6 °F 87% 30.01 in 5.0 mi West 6.9 mph - 0.00 in   Overcast
9:33 PM 48.2 °F - 44.6 °F 87% 30.00 in 5.0 mi West 8.1 mph - 0.00 in Rain Light Rain
9:49 PM 46.4 °F 43.5 °F 44.6 °F 93% 30.00 in 5.0 mi WNW 5.8 mph - 0.01 in Rain Light Rain
9:54 PM 48.0 °F - 45.0 °F 89% 30.00 in 7.0 mi NW 3.5 mph - 0.01 in Rain Light Rain
10:54 PM 48.0 °F - 45.0 °F 89% 30.01 in 9.0 mi Calm Calm - N/A   Overcast
11:31 PM 48.2 °F - 44.6 °F 87% 29.98 in 10.0 mi Calm Calm - 0.00 in Rain Light Rain
11:54 PM 48.0 °F - 45.0 °F 89% 29.99 in 10.0 mi NW 3.5 mph - 0.00 in   Overcast